www.pogodaiklimat.ru

Погода и климат >> Архив погоды >> Иран >> Кашан


ПОГОДА в Кашане

  • Прогноз погоды в Кашане
  • Монитор погоды в Кашане

АРХИВ ПОГОДЫ в Кашане

Время (UTC), дата Ветер
(напр.,м/с)
 
Видим.   Явления Облачность Т
(С)
Тd
(С)
f
(%)
Тe
(С)
Тes
(С)
Комфортность P
(гПа)
Po
(гПа)
Тmin
(С)
Tmax
(С)
R
(мм)
R24
(мм)
S
(см)
18 15.03 штиль 0 10 км 4/4 1050 м
[Sc]
+10.6 +2.2 56 +10 +10 1012.7 904.9
21 15.03 штиль 0 10 км ясно +11.0 -0.2 46 +11 +11 1011.4 904.2
00 16.03 штиль 0 10 км ясно +8.2 +1.8 64 +8 +8 1012.8 903.6
03 16.03 штиль 0 10 км ясно +3.4 +0.4 81 +2 +3 1013.9 904.3 +3.4
06 16.03 штиль 0 10 км ясно +11.6 +0.6 47 +11 +24 опасность
простуды
1016.1 907.4
09 16.03 ЮВ 6 10 км ясно +16.2 -1.0 31 +15 +21 1013.5 905.9
12 16.03 СВ 3 10 км ясно +19.0 -2.3 24 +19 +24 1010.6 903.3
15 16.03 штиль 0 10 км ясно +17.6 +0.8 32 +18 +18 1010.5 902.2 +20.2
18 16.03 штиль 0 10 км ясно +13.6 +2.4 47 +14 +14 1011.0 903.4
21 16.03 штиль 0 10 км ясно +10.6 +4.7 67 +10 +10 1010.2 903.0
00 17.03 штиль 0 10 км ясно +9.0 +3.8 70 +8 +8 1009.6 902.7
03 17.03 штиль 0 10 км ясно +8.0 +2.6 69 +7 +8 1009.2 901.9 +7.2
06 17.03 штиль 0 10 км 10/4 1200 м
[Sc As op]
+9.8 +4.7 71 +9 +11 1008.7 901.1
09 17.03 СЗ 2 10 км {дождь} 10/4 1050 м
[Sc As op]
+12.4 +4.6 59 +12 +14 1003.1 896.1
12 17.03 З 6 6000 м дождь {ливн. осадки} 10/5 900 м
[Cb cap As op]
+8.0 +7.2 95 +4 +4 1006.0 897.7 3
15 17.03 СВ 4 10 км {дождь} 5/3 1200 м
[Sc Ci sp]
+7.8 +6.6 92 +4 +4 1005.7 897.2 +12.6 666
18 17.03 СВ 2 10 км {дождь} 3/0
[Ac trans]
+7.8 +4.4 79 +6 +6 1005.0 896.8 2
21 17.03 ЮЗ 14 10 км ясно +11.4 -2.9 37 +7 +7 1003.9 896.8
00 18.03 В 2 10 км ясно +8.8 -0.2 53 +7 +7 1005.6 897.1
03 18.03 З 3 10 км 6/0
[Ci sp]
+10.0 -1.7 44 +8 +8 1007.5 898.9 +6.0
06 18.03 ЮЗ 4 10 км 1/1 1200 м
[Cu hum]
+14.4 -4.4 27 +13 +19 1008.0 900.1
09 18.03 штиль 0 10 км 1/1 1200 м
[Cu hum]
+17.0 -4.0 23 +17 +35 опасность
простуды
1008.2 901.3
12 18.03 ЮВ 3 10 км 1/1 1200 м
[Cu hum]
+18.0 -5.4 20 +18 +23 1008.5 901.3
15 18.03 ЮЗ 6 10 км ясно +14.6 -4.0 27 +13 +13 1011.2 903.4 +18.8
18 18.03 З 6 10 км ясно +12.2 -3.9 32 +10 +10 1013.4 905.7
21 18.03 штиль 0 10 км ясно +10.0 -3.9 37 +10 +10 1014.1 906.4
00 19.03 З 5 10 км ясно +10.2 -5.2 33 +8 +8 1014.1 906.6
03 19.03 штиль 0 10 км ясно +9.0 -5.7 35 +9 +9 1015.5 907.0 +7.0
06 19.03 З 4 10 км ясно +13.6 -3.6 30 +12 +19 1015.6 907.6
09 19.03 З 4 10 км ясно +15.6 -6.4 21 +15 +25 1014.4 906.4
12 19.03 СВ 4 10 км ясно +17.4 -5.9 20 +17 +21 1011.9 904.5
15 19.03 штиль 0 10 км ясно +15.4 -4.1 26 +15 +15 1012.2 904.2 +18.0
18 19.03 штиль 0 10 км ясно +12.0 0.0 44 +12 +12 1013.3 905.5
21 19.03 штиль 0 10 км ясно +9.6 -0.4 50 +9 +9 1013.3 905.5
00 20.03 штиль 0 10 км ясно +7.4 +0.2 60 +7 +7 1013.0 905.1
03 20.03 штиль 0 10 км ясно +6.0 +1.2 71 +5 +6 1014.7 906.0 +6.0
06 20.03 СВ 2 10 км 3/0
[Ci sp]
+11.2 +1.8 52 +10 +19 1016.1 907.7
09 20.03 С 3 10 км 4/0
[Ci sp]
+14.6 +0.3 38 +14 +26 опасность
простуды
1014.7 906.5
12 20.03 В 2 10 км 4/0
[Ci sp]
+16.2 -1.7 29 +16 +22 1012.5 904.4
15 20.03 С 2 10 км 4/0
[Ac trans]
+14.6 -1.0 34 +15 +15 1014.0 905.2 +17.6
18 20.03 штиль 0 10 км 3/0
[Ac trans]
+11.2 0.0 46 +11 +11 1015.9 907.3
21 20.03 СЗ 2 10 км 6/0
[Ac trans]
+10.2 -0.8 46 +9 +9 1016.3 908.0
00 21.03 ЮВ 2 10 км 4/0
[Ac trans]
+7.2 +2.1 70 +5 +5 1016.0 907.6
03 21.03 штиль 0 10 км 3/0
[Ac trans]
+7.0 +1.4 68 +6 +7 1017.5 908.6 +5.0
06 21.03 СВ 3 10 км 4/0
[Ci sp]
+10.2 -0.2 48 +9 +16 1017.8 908.8
09 21.03 СЗ 2 10 км 5/0
[Ci sp]
+14.6 -0.4 36 +15 +29 опасность
простуды
1015.1 907.0 666
12 21.03 СЗ 3 10 км 6/0
[As trans]
+14.8 -2.1 31 +14 +18 1013.8 905.3
15 21.03 СЗ 2 10 км 6/0
[As trans]
+11.6 +1.8 51 +11 +11 1016.6 907.3 +16.0 666
18 21.03 штиль 0 10 км 4/0
[Ac trans]
+9.6 +3.0 63 +9 +9 1017.7 908.5
21 21.03 штиль 0 10 км 3/0
[Ac trans]
+10.4 +1.3 53 +10 +10 1017.3 909.0
00 22.03 штиль 0 10 км ясно +7.4 -0.4 58 +7 +7 1018.6 909.6
03 22.03 штиль 0 10 км ясно +5.6 -0.4 65 +5 +5 1021.4 911.2 +5.0
06 22.03 штиль 0 10 км ясно +10.0 -4.0 37 +10 +23 опасность
простуды
1020.5 910.8
09 22.03 СВ 4 10 км ясно +14.4 -2.9 30 +13 +24 опасность
простуды
1017.6 909.2
12 22.03 штиль 0 10 км ясно +16.6 -3.3 25 +17 +25 1015.5 907.1
15 22.03 СВ 3 10 км ясно +15.4 -5.0 24 +15 +15 1015.5 906.6 +18.0

 

Местоположение метеостанции Кашан (Иран): широта 33.98 долгота 51.45 высота над уровнем моря 982 м.

В архиве по умолчанию представлена погода в Кашане за последнюю неделю. Архивные данные за месяц целиком и за предыдущие месяцы, начиная с января 2011 года, Вы можете получить, выбрав интересующий диапазон дат из раскрывающегося списка и нажав кнопку "Ввод!".


*Определитесь, кто Вы:
робот инопланетянин человек

Внимание! Время в таблицах - всемирное. Для получения местного времени необходимо прибавить поправку, которая равна 3.5 ч.

Смотрите также архив погоды в соседних городах и на ближайших метеорологических станциях:

Погода в Араке (Иран) (155 км)
Погода в Исфахане (Иран) (169 км)
Погода в Элигудерзе (Иран) (176 км)
Погода в Тегеране (Иран) (189 км)
Погода в Шехре-Корде (Иран) (197 км)
Погода в Семнане (Иран) (248 км)
Погода в Хамадане (Иран) (285 км)
Погода в Казвине (Иран) (285 км)
Погода в Хорремабаде (Иран) (290 км)
Погода в Ноушехре (Иран) (297 км)

Пояснения к столбцам:

Ветер - указаны скорость ветра в м/с - средняя за 10 мин, порывы в срок и между сроками (в фигурных скобках) и направление, откуда дует ветер: С - северный, СВ - северо-восточный, В - восточный, ЮВ - юго-восточный, Ю - южный, ЮЗ - юго-западный, З - западный, СЗ - северо-западный.
Видимость - горизонтальная дальность видимости в метрах или километрах. При видимости от 1 до 10 км при отсутствии осадков обычно наблюдается дымка, при ухудшении видимости до 1 км и менее - туман. В сухую погоду видимость может ухудшаться дымом, пылью или мглою.
Явления - указаны атмосферные явления, наблюдавшиеся в срок или в последний час перед сроком; фигурными скобками обозначены явления, наблюдавшиеся между сроками (за 1-3 часа до срока); квадратными скобками обозначены град или гололедные отложения с указанием их диаметра в мм.
Облачность - указаны через наклонную черту общая и нижняя облачность в баллах и высота нижней границы облаков в метрах; квадратными скобками обозначены формы облаков: Ci - перистые, Cs - перисто-слоистые, Cc - перисто-кучевые, Ac - высококучевые, As - высокослоистые, Sc - слоисто-кучевые, Ns - слоисто-дождевые, Cu - кучевые, Cb - кучево-дождевые. Подробнее классификацию облаков см. в Атласе облаков (PDF).
T - Температура воздуха - температура, измеренная на высоте 2 м над землей.
Td - Температура точки росы - температура, при понижении до которой содержащийся в воздухе водяной пар достигнет насыщения.
f - Относительная влажность воздуха - влажноcть воздуха, измеренная на высоте 2 м над землей.
Te - Эффективная температура - температура, которую ощущает одетый по сезону человек в тени. Характеристика душности погоды. При расчете учитывается влияние влажности воздуха и скорости ветра на теплоощущения человека.
Tes - Эффективная температура на солнце - температура, которую ощущает человек, с поправкой на солнечный нагрев. Характеристика знойности погоды. Зависит от высоты солнца над горизонтом, облачности и скорости ветра. Ночью, в пасмурную погоду, а также при ветре 12 м/с и более поправка равна нулю.
P - Атмосферное давление - приведенное к уровню моря атмосферное давление.
Po - Атмосферное давление - измеренное на уровне метеостанции атмосферное давление.
Tmin - Минимальная температура - минимум температуры воздуха на высоте 2 м над землей.
Tmax - Максимальная температура - максимум температуры воздуха на высоте 2 м над землей.
R - Количество осадков - Количество выпавших осадков за период времени, мм. При наведении курсора мыши на число - период времени, за который выпало указанное количество осадков.
R24 - Количество осадков - Количество выпавших осадков за 24 часа, мм.
S - Снежный покров - Высота снежного покрова, см. При наведении курсора мыши на число - состояние снежного покрова и степень покрытия местности в баллах.